This is the latest recevied weather packets stored in our database for station/object KN6WGU. If no packets are shown the sender has not sent any weather packets the latest 10 day(s).
| Time | Temp. | Humidity | Pressure | Rain* | Wind** | Luminosity | Snow |
|---|---|---|---|---|---|---|---|
| 1787407138 | 23.33° C | 83% | 1005.8 hPa | 0 mm | - | 104 W/m² | - |
| 1787406834 | 23.33° C | 83% | 1005.8 hPa | 0 mm | - | 99 W/m² | - |
| 1787406534 | 22.78° C | 83% | 1005.9 hPa | 0 mm | - | 122 W/m² | - |
| 1787406230 | 22.78° C | 86% | 1006 hPa | 0 mm | - | 130 W/m² | - |
| 1787405926 | 22.22° C | 87% | 1005.9 hPa | 0 mm | - | 171 W/m² | - |
| 1787405623 | 22.22° C | 88% | 1006.1 hPa | 0 mm | - | 84 W/m² | - |
| 1787405322 | 21.67° C | 89% | 1006 hPa | 0 mm | - | 96 W/m² | - |
| 1787405018 | 21.11° C | 90% | 1006.1 hPa | 0 mm | - | 112 W/m² | - |
| 1787404713 | 21.11° C | 93% | 1006.1 hPa | 0 mm | - | 91 W/m² | - |
| 1787404408 | 20.56° C | 94% | 1006.2 hPa | 0 mm | - | 67 W/m² | - |
| 1787404104 | 20.56° C | 95% | 1006.3 hPa | 0 mm | - | 58 W/m² | - |
| 1787403799 | 20° C | 96% | 1006.1 hPa | 0 mm | - | 56 W/m² | - |
| 1787403498 | 20° C | 97% | 1006.2 hPa | 0 mm | - | 54 W/m² | - |
| 1787403194 | 20° C | 98% | 1006.2 hPa | 0 mm | - | 53 W/m² | - |
| 1787402890 | 20° C | 98% | 1006.2 hPa | 0 mm | - | 55 W/m² | - |
| 1787402585 | 19.44° C | 99% | 1006.5 hPa | 0 mm | - | 50 W/m² | - |
| 1787402284 | 19.44° C | 99% | 1006.5 hPa | 0 mm | - | 56 W/m² | - |
| 1787401980 | 19.44° C | 99% | 1006.6 hPa | 0 mm | - | 57 W/m² | - |
| 1787401675 | 19.44° C | 99% | 1006.6 hPa | 0 mm | - | 53 W/m² | - |
| 1787401371 | 19.44° C | 99% | 1006.7 hPa | 0 mm | - | 49 W/m² | - |
| 1787401070 | 18.89° C | 99% | 1006.8 hPa | 0 mm | - | 51 W/m² | - |
| 1787400766 | 18.89° C | 99% | 1006.5 hPa | 0 mm | - | 43 W/m² | - |
| 1787400466 | 18.89° C | 99% | 1006.7 hPa | 0 mm | - | 42 W/m² | - |
| 1787400162 | 18.89° C | 99% | 1006.9 hPa | 0 mm | - | 43 W/m² | - |
| 1787399858 | 18.89° C | 99% | 1006.8 hPa | 0 mm | - | 37 W/m² | - |
* Rain latest hour (hover to see other rain measurements)
** Current wind speed in m/s (hover to see current wind gust speed)